| |
Missouri Department of Transportation

Social Media Facebook Twitter Flickr Instagram YouTube RSS

Current AWOS Information

 
AWOS Home - General Info for all Airports
Current AWOS for all Airports - Current METAR for all Airports
Glossary - Disclaimer - Other Links


MARSHALL--MARSHALL MEMORIAL MUNICIPAL--KMHL
 
Recent AWOS History
 
05/25/15     08:32 AM CDT      13:32 GMT
Air Temperature 65°F (18°C ) 1st Cloud Layer Overcast at 1,100 feet
Dew Point 63°F (17°C) 2nd Cloud Layer  
Barometric Pressure 29.98 in Hg. 3rd Cloud Layer  
Wind Speed 9 mph (8 knots) Density Altitude  
Peak Wind Gusts   Variable Wind Directions  
Wind Direction Quadrant(200°) Variable Visibility  
Visibility 10 statute miles  

Thunderstorm and Precipitation Identification: 
Thunderstorm Remarks: 

Current METAR Record: METAR KMHL 251337Z AUTO 20009KT 10SM OVC011 19/17 A2998 RMK AO2

 

 

 

About Us
How Do I...
Contact Us
Missouri Department of Transportation
Central Office
105 W. Capitol Avenue
Jefferson City, MO 65102
1-888-ASK-MODOT (275-6636)
1-866-831-6277 (Motor Carrier Services)
Driver's License Offices
horz_bar
| | |
Missouri State Government
© 2013 Missouri Department of Transportation. All Rights Reserved.   Privacy Policy.
 
 
 
 
RSS FeedYoutubeBlogFlickrTwitter Facebook